STARLINK-3110, 49420

Orbit data source: Space-Track

STARLINK-3110, 49420 is a payload satellite owned by SpaceX/Seattle (US) in LEO that was launched on Sat, 13 Nov 2021 UTC via an FALCON 9 launch vehicle from the Air Force Eastern Test Range (AFETR). Payload-class satellites include a variety of spacecraft equipped with specific instruments for various scientific and technological missions. These include communications satellites like Starlink; space stations such as the ISS; scientific satellites like the Hubble; Earth observation satellites from companies like Planet Labs, Umbra, and HawkEye 360; GPS; miniature CubeSats for education and research; and military/defense satellites.

Loading next visibility...
Identifier
49420, 2021-104N
Orbit
LEO
Country
Flag of USUS
Related business
Manufacturer
SpaceX/Seattle
Mission
Operational Commercial Communications
Bus & Motor
STARLINK, Unknown motor
Mass
290 kg wet, ~270 kg dry
Launch date (UTC)
2021-11-13 (5 years ago)
Launch vehicle
FALCON 9
Launch site
Air Force Eastern Test Range (AFETR)
Object type
Payload
Rocket body
Debris
Shape & HBR
Box + 1 Pan, 10.1 m
Radar Cross Section
13.562 m², Large (>1 m²)

Expand to show TLE details & history
Last TLE update: 1 week ago

TLE from 1 week ago
0 STARLINK-3110
1 49420U 21104N   26154.28305852  .00000221  00000-0  32011-4 0  9994
2 49420  53.1848 204.8555 0001334  77.3196 282.7945 15.08831945251541
Epoch: 2026-06-03T06:47Z
TLE epoch observation values (Epoch: 2026-06-03T06:47:36.256Z)
Latitude
0.00001°
Longitude
-148.78946°
Altitude
540.458 km
Speed
7.593 km/s
True Right ascension
13h 39m 25s
True Declination
0° 00' 00"
Sunlit
Object was in full shadow at epoch
Visualization orbit readout
Latitude
Unknown
Longitude
Unknown
Altitude
Unknown
Speed
Unknown
Apparent Right ascension
Unknown
Apparent Declination
Unknown
Sunlit
N/A
Visualization observer readout
Local Sidereal Time
14:54:21
Azimuth
Unknown
Elevation
Unknown
Doppler factor
Unknown
Orbital elements
Apogee altitude
540.941 km
Perigee altitude
539.095 km
Semi-major axis
6,918.155 km
Eccentricity
0.00013
Inclination
53.1848°
RAAN
204.8555°
Arg. of periapsis
77.3196°
True anomaly
282.77959°
Mean anomaly
282.7945°
Eccentric anomaly
282.78705°
Mean motion
3.77188 °/min
Orbital period
95.44 mins
BSTAR
0.000032011
Loading maneuver chart data...
Computing Atmospheric mass density...
Loading historical data...
Loading historical data...
Loading historical data...
Loading historical data...
Loading historical data...
Loading historical data...
Loading historical data...

Documentation

Showing up to 5 results
|